Weather Roundup
Issued by NWS Chicago, IL

Home | Current Version | Previous Version | Graphics & Text | Print | Product List | Glossary On
Versions: 1 2 3 4 5 6 7 8 9 10 11 12 13 14 15 16 17 18 19 20 21 22 23 24 25 26 27 28 29 30 31 32 33 34 35 36 37 38 39 40 41 42 43 44 45 46 47 48 49 50
000
NZUS59 KLOT 212010
HRRLOT

CHICAGO AREA WEATHER ROUNDUP
NATIONAL WEATHER SERVICE CHICAGO/ROMEOVILLE IL
300 PM CDT THU AUG 21 2014

NOTE: "FAIR" INDICATES FEW OR NO CLOUDS BELOW 12,000 FEET WITH NO
SIGNIFICANT WEATHER AND/OR OBSTRUCTIONS TO VISIBILITY.

* THESE STATIONS ARE NOT UNDER NWS QUALITY CONTROL. THEY ALSO MAY NOT
  REPORT WEATHER SUCH AS PRECIPITATION OR FOG.

ILZ005-006-012>014-019>023-212100-
NORTHEAST ILLINOIS

CITY           SKY/WX    TMP DP  RH WIND       PRES   REMARKS
OHARE          CLOUDY    78  69  73 CALM      29.95F HX  80
MIDWAY         CLOUDY    82  74  76 SE9       29.94F HX  88
AURORA         CLOUDY    81  72  74 SW7       29.96R HX  85
LANSING*       LGT RAIN  80  72  76 CALM      29.96F HX  83
JOLIET*        PTSUNNY   82  71  71 SW3       29.95F HX  86
WAUKEGAN       LGT RAIN  73  70  90 E6        29.95S
DUPAGE AIRPORT CLOUDY    80  72  76 S7        29.95F HX  84
WHEELING       CLOUDY    77  72  84 SE3       29.97S THUNDER
KANKAKEE*      PTSUNNY   85  76  75 S7        29.95F HX  94
MORRIS*        CLOUDY    83  74  73 SW5       29.93F HX  90
LEWIS AIRPORT* PTSUNNY   82  71  71 CALM      29.95F HX  86
NORTHERLY IS     N/A     75  71  87 E6          N/A
$$

WIZ051-052-058>065-066-070>072-212100-
SOUTHEAST WISCONSIN

CITY           SKY/WX    TMP DP  RH WIND       PRES   REMARKS
MILWAUKEE      CLOUDY    72  69  90 CALM      29.95R
KENOSHA*       LGT RAIN  73  71  93 S6        29.97R
RACINE*        CLOUDY    73  70  90 S5        29.98R FOG
BURLINGTON     RAIN      70  69  96 SE6       29.94F
WAUKESHA       PTSUNNY   70  68  94 E6        29.95F
WEST BEND      CLOUDY    70  66  88 SE5       29.93F
$$

INZ001>003-010>013-019-020-212100-
NORTHWEST INDIANA

CITY           SKY/WX    TMP DP  RH WIND       PRES   REMARKS
GARY*          CLOUDY    82  73  74 VRB6      29.96F HX  88
MICHIGAN CITY* NOT AVBL
RENSSELAER*    NOT AVBL
VALPARAISO     CLOUDY    80  72  76 SE3       29.98F HX  84
$$

LMZ740>746-212100-
SOUTHERN LAKE MICHIGAN

STATION/POSITION TIME  SKY/WX   TEMP WIND        PRES    VSBY
                                AIR  DIR/SP/G
                 (UTC)          (F)  (DEG/KT/KT) (MB)    (MI)
HARRISON CRIB    2000            74  110/ 12/ 13   N/A
BURNHAM HARBOR   2000            74   90/  5/  7   N/A
CALUMET HARBOR   2000            78   70/  4/  5 1013.1F
BURNS HARBOR     1900            77  170/  1/  4   N/A
MICHIGAN CITY    2000            77  120/  4/  5   N/A
$$

ABBREVIATIONS USED IN REMARKS
   TC - TEMPERATURE IN CELSIUS
  WCI - WIND CHILL INDEX
   HX - HEAT INDEX
  VSB - VISIBILITY
$$



USA.gov is the U.S. government's official web portal to all federal, state and local government web resources and services.